[[{"header":{"parameterUnit":"m.s-1","parameterCategory":1,"la1":30.2991,"la2":30.254,"lo1":-89.0895,"lo2":-89.0444,"dy":0.0017,"dx":0.0017,"nx":28,"ny":28,"refTime":"2023-11-05T03:00:00:Z","depth":0,"parameterNumber":2,"parameterNumberName":"U-component_of_WINDS"},"data":[0,0,0,0,0,0,0,0,0,0,0,0,0,0,0,0,0,0,0,0,0,0,0,0,0,0,0,0,0,0,0,0,0,0,0,0,0,0,0,0,0,0,0,0,0,0,0,0,0,0,0,0,0,0,0,0,0,0,0.0435,0.0436,0,0.0489,0.049,0.0491,0.0502,0.0502,0.0501,0.0501,0.0559,0.0561,0.0563,0,0,0,0,0,0,0,0,0,0,0,0,0,0.0343,0.0344,0.0435,0.0436,0.0436,0.0489,0.049,0.0491,0.0502,0.0502,0.0501,0.0501,0.0558,0.0561,0.0563,0,0,0,0,0,0,0,0,0,0,0,0,0,0.0389,0.0345,0.0435,0.0448,0.045,0.0489,0.049,0.0491,0.0502,0.0502,0.0501,0.0501,0.0558,0.056,0.0563,0.0593,0,0,0.0572,0.0573,0,0,0,0,0,0,0,0,0.0386,0.0392,0.0446,0.0447,0.045,0.0488,0.0479,0.0525,0.0503,0.0483,0.0501,0.05,0.0536,0.0541,0.0552,0.0596,0.0599,0.0572,0.0574,0.0575,0.0576,0,0,0,0,0,0,0,0.0383,0.039,0.0457,0.0446,0.0449,0.0452,0.0458,0.0488,0.0512,0.0484,0.0485,0.0491,0.0537,0.055,0.0554,0.06,0.0572,0.0575,0.0577,0.0578,0.0671,0.0672,0,0,0,0,0,0,0.0377,0.0387,0.0455,0.0458,0.0415,0.0454,0.0461,0.0477,0.0512,0.0517,0.0492,0.0492,0.0545,0.055,0.0556,0.0594,0.0575,0.0578,0.058,0.0671,0.0671,0.0672,0,0,0,0,0,0,0.0375,0.0383,0.0453,0.0423,0.0432,0.0457,0.0474,0.0478,0.049,0.0518,0.0522,0.05,0.0545,0.0552,0.0584,0.0596,0.0579,0.0582,0.067,0.0671,0.0672,0.067,0,0,0,0,0,0,0.0372,0.0382,0.0393,0.0423,0.0434,0.0479,0.0475,0.0479,0.0495,0.0495,0.0527,0.0531,0.0545,0.058,0.0587,0.06,0.0584,0.0669,0.067,0.0671,0.067,0.0671,0.0673,0,0,0,0,0,0.0369,0.0391,0.0394,0.0402,0.0448,0.048,0.0486,0.0501,0.0496,0.0508,0.0525,0.053,0.0593,0.0583,0.0591,0.0605,0.0668,0.067,0.0671,0.0669,0.0671,0.0673,0,0,0,0,0,0,0.0364,0.0396,0.0399,0.0431,0.0453,0.0482,0.0497,0.0503,0.0526,0.0526,0.0543,0.055,0.0582,0.0597,0.0584,0.0637,0.0631,0.0634,0.0626,0.0628,0.063,0.0626,0.0587,0,0,0,0,0,0.0366,0.0388,0.0415,0.0442,0.0452,0.0473,0.0487,0.0496,0.052,0.0529,0.0549,0.0572,0.0597,0.0613,0.0638,0.0671,0.0679,0.0685,0.0687,0.0688,0.0691,0.0711,0.0714,0.0678,0.0678,0.0678,0,0,0.0372,0.0392,0.0405,0.0441,0.0459,0.0482,0.048,0.0505,0.0523,0.0533,0.0565,0.058,0.0607,0.064,0.0655,0.0653,0.0703,0.069,0.0691,0.0694,0.0713,0.0716,0.0719,0.0679,0.0679,0.0679,0,0,0.0394,0.0411,0.0435,0.0453,0.0479,0.0493,0.0498,0.0526,0.0537,0.0568,0.0576,0.0598,0.0641,0.066,0.0675,0.0704,0.0709,0.0711,0.0721,0.0739,0.0742,0.0745,0.0756,0.076,0.0714,0.0714,0.0714,0,0.0399,0.0434,0.0447,0.0472,0.0488,0.0496,0.0521,0.0537,0.0571,0.0582,0.0578,0.0632,0.0651,0.0689,0.0696,0.0707,0.0715,0.0708,0.074,0.0743,0.0746,0.0757,0.0761,0.0714,0.0714,0.0714,0.0714,0,0.0438,0.0462,0.0478,0.0509,0.0527,0.0551,0.0569,0.0585,0.0592,0.0606,0.0639,0.0661,0.0691,0.07,0.0708,0.0739,0.0737,0.0737,0.0731,0.0749,0.076,0.0764,0.0714,0.0714,0.0714,0.0714,0,0,0.0461,0.0498,0.0504,0.0518,0.0547,0.0566,0.0591,0.0619,0.0633,0.0655,0.0677,0.0713,0.0713,0.073,0.074,0.0756,0.0778,0.0754,0.0755,0.0759,0.0815,0.0816,0.082,0.0781,0.0782,0.0783,0.0813,0,0.0488,0.0532,0.0544,0.0582,0.0605,0.0613,0.0634,0.0655,0.0668,0.069,0.0705,0.0731,0.0728,0.0739,0.0755,0.0772,0.079,0.077,0.0803,0.0804,0.0797,0.0826,0.0827,0.0854,0.0817,0.0818,0.0818,0,0.0526,0.0548,0.0587,0.0613,0.0624,0.0643,0.0669,0.069,0.0713,0.0722,0.074,0.0749,0.0776,0.0768,0.0806,0.0792,0.0806,0.0816,0.0818,0.0822,0.0813,0.0832,0.0863,0.0868,0.0825,0.0824,0.0824,0,0.054,0.0579,0.0608,0.062,0.0651,0.0664,0.0678,0.07,0.0716,0.0739,0.075,0.0776,0.0791,0.0811,0.0827,0.0819,0.0864,0.0857,0.0873,0.0872,0.0883,0.0882,0.0918,0.089,0.089,0.0889,0.0889,0,0.057,0.0594,0.0615,0.0633,0.066,0.0674,0.0701,0.0715,0.0735,0.0756,0.0764,0.0784,0.0803,0.0825,0.0837,0.0867,0.0874,0.0882,0.0885,0.0882,0.0881,0.0893,0.0892,0.0891,0.089,0.089,0.089,0,0.0591,0.0605,0.0638,0.0663,0.067,0.069,0.0712,0.073,0.0743,0.077,0.0777,0.0798,0.0825,0.0842,0.0876,0.0884,0.0918,0.092,0.091,0.0911,0.0927,0.0925,0.0972,0.0979,0.0945,0.0945,0.0945,0,0.061,0.0628,0.0656,0.067,0.0683,0.0706,0.0722,0.0736,0.0753,0.078,0.0795,0.0822,0.0845,0.0888,0.0907,0.0933,0.0936,0.0951,0.0941,0.0937,0.0938,0.0937,0.094,0.0953,0.0953,0.0954,0.0954,0,0.0642,0.0648,0.067,0.0695,0.0713,0.0733,0.0754,0.0765,0.0782,0.08,0.0827,0.0845,0.0879,0.0907,0.0934,0.0949,0.0955,0.0956,0.0962,0.096,0.0953,0.0958,0.0916,0.0956,0.0956,0.0955,0.0955,0.0955,0.0664,0.0681,0.0703,0.0727,0.0743,0.0761,0.078,0.0794,0.0817,0.0845,0.0852,0.0881,0.0903,0.0941,0.0956,0.098,0.0978,0.0985,0.0987,0.0989,0.099,0.0948,0.0985,0.0985,0.0984,0.0984,0.0984,0,0.0698,0.0712,0.0734,0.0761,0.078,0.0782,0.0804,0.082,0.0845,0.0865,0.0887,0.0918,0.0944,0.0964,0.0991,0.1006,0.1009,0.1013,0.1013,0.1016,0.099,0.0983,0.101,0.101,0.101,0.101,0.101,0.101,0.0718,0.0747,0.0755,0.0792,0.0806,0.0834,0.0846,0.0863,0.0879,0.0913,0.0935,0.0947,0.0968,0.0996,0.102,0.1026,0.1036,0.1039,0.1045,0.102,0.1018,0.1015,0.1009,0.1041,0.1041,0.107,0.107,0.107]},{"header":{"parameterUnit":"m.s-1","parameterCategory":1,"la1":30.2991,"la2":30.254,"lo1":-89.0895,"lo2":-89.0444,"dy":0.0017,"dx":0.0017,"nx":28,"ny":28,"refTime":"2023-11-05T03:00:00:Z","depth":0,"parameterNumber":3,"parameterNumberName":"V-component_of_WINDS"},"data":[0,0,0,0,0,0,0,0,0,0,0,0,0,0,0,0,0,0,0,0,0,0,0,0,0,0,0,0,0,0,0,0,0,0,0,0,0,0,0,0,0,0,0,0,0,0,0,0,0,0,0,0,0,0,0,0,0,0,-0.7894,-0.7894,0,-0.7953,-0.7954,-0.7955,-0.7966,-0.7966,-0.7965,-0.7965,-0.8028,-0.803,-0.8032,0,0,0,0,0,0,0,0,0,0,0,0,0,-0.7793,-0.7795,-0.7894,-0.7894,-0.7895,-0.7953,-0.7954,-0.7955,-0.7966,-0.7966,-0.7965,-0.7964,-0.8027,-0.803,-0.8032,0,0,0,0,0,0,0,0,0,0,0,0,0,-0.7843,-0.7796,-0.7894,-0.7908,-0.791,-0.7953,-0.7954,-0.7955,-0.7966,-0.7966,-0.7965,-0.7964,-0.8027,-0.803,-0.8033,-0.8067,0,0,-0.8043,-0.8044,0,0,0,0,0,0,0,0,-0.784,-0.7847,-0.7905,-0.7907,-0.7909,-0.7951,-0.7942,-0.7993,-0.7966,-0.7945,-0.7965,-0.7964,-0.8003,-0.8008,-0.8021,-0.807,-0.8073,-0.8043,-0.8045,-0.8046,-0.8047,0,0,0,0,0,0,0,-0.7837,-0.7844,-0.7917,-0.7906,-0.7908,-0.7912,-0.7919,-0.7951,-0.7977,-0.7947,-0.7948,-0.7954,-0.8004,-0.8018,-0.8023,-0.8074,-0.8043,-0.8046,-0.8048,-0.8049,-0.8155,-0.8156,0,0,0,0,0,0,-0.7831,-0.7841,-0.7915,-0.7919,-0.7872,-0.7915,-0.7922,-0.7939,-0.7977,-0.7982,-0.7955,-0.7955,-0.8013,-0.8019,-0.8025,-0.8069,-0.8046,-0.8049,-0.8051,-0.8154,-0.8155,-0.8156,0,0,0,0,0,0,-0.7828,-0.7837,-0.7913,-0.7881,-0.7891,-0.7917,-0.7936,-0.794,-0.7954,-0.7983,-0.7988,-0.7964,-0.8013,-0.8021,-0.8057,-0.8071,-0.8051,-0.8053,-0.8153,-0.8154,-0.8156,-0.8155,0,0,0,0,0,0,-0.7825,-0.7836,-0.7848,-0.7881,-0.7892,-0.7943,-0.7937,-0.7942,-0.7959,-0.7959,-0.7993,-0.7998,-0.8013,-0.8052,-0.806,-0.8075,-0.8056,-0.8152,-0.8154,-0.8155,-0.8154,-0.8156,-0.8158,0,0,0,0,0,-0.7822,-0.7846,-0.7849,-0.7858,-0.7908,-0.7943,-0.795,-0.7966,-0.796,-0.7973,-0.7993,-0.7997,-0.8068,-0.8055,-0.8065,-0.8081,-0.8151,-0.8153,-0.8155,-0.8153,-0.8156,-0.8158,0,0,0,0,0,0,-0.7816,-0.7851,-0.7854,-0.7889,-0.7913,-0.7945,-0.7962,-0.7968,-0.7994,-0.7993,-0.8012,-0.802,-0.8055,-0.8072,-0.8057,-0.8117,-0.8109,-0.8113,-0.8105,-0.8108,-0.811,-0.8105,-0.8059,0,0,0,0,0,-0.7818,-0.7843,-0.7873,-0.7901,-0.7913,-0.7935,-0.7951,-0.7961,-0.7987,-0.7997,-0.8019,-0.8045,-0.8073,-0.8091,-0.8119,-0.8157,-0.8165,-0.8172,-0.8175,-0.8176,-0.818,-0.8202,-0.8206,-0.8163,-0.8163,-0.8163,0,0,-0.7824,-0.7846,-0.7861,-0.79,-0.792,-0.7946,-0.7944,-0.7971,-0.7992,-0.8002,-0.8037,-0.8054,-0.8084,-0.8122,-0.8139,-0.8136,-0.8193,-0.8179,-0.818,-0.8182,-0.8205,-0.8209,-0.8213,-0.8164,-0.8164,-0.8164,0,0,-0.7848,-0.7867,-0.7893,-0.7913,-0.7943,-0.7958,-0.7964,-0.7995,-0.8007,-0.8043,-0.8051,-0.8076,-0.8124,-0.8145,-0.8162,-0.8196,-0.8202,-0.8205,-0.8216,-0.8238,-0.8241,-0.8245,-0.8258,-0.8262,-0.8208,-0.8208,-0.8208,0,-0.7852,-0.7891,-0.7906,-0.7934,-0.7952,-0.7962,-0.7989,-0.8008,-0.8045,-0.8058,-0.8054,-0.8115,-0.8136,-0.8179,-0.8188,-0.8201,-0.821,-0.8201,-0.824,-0.8243,-0.8246,-0.8259,-0.8264,-0.8208,-0.8208,-0.8208,-0.8208,0,-0.7895,-0.7922,-0.794,-0.7975,-0.7995,-0.8023,-0.8043,-0.8062,-0.807,-0.8086,-0.8124,-0.8149,-0.8182,-0.8193,-0.8202,-0.8238,-0.8236,-0.8235,-0.8229,-0.825,-0.8263,-0.8268,-0.8208,-0.8208,-0.8208,-0.8208,0,0,-0.7917,-0.7961,-0.7967,-0.7984,-0.8018,-0.8039,-0.8068,-0.81,-0.8116,-0.8142,-0.8167,-0.8208,-0.8208,-0.8228,-0.8239,-0.8258,-0.8285,-0.8256,-0.8257,-0.8261,-0.8329,-0.8329,-0.8334,-0.8289,-0.829,-0.8291,-0.8326,0,-0.7946,-0.7996,-0.8011,-0.8054,-0.808,-0.8091,-0.8116,-0.814,-0.8156,-0.8181,-0.82,-0.8229,-0.8226,-0.8238,-0.8257,-0.8278,-0.8299,-0.8275,-0.8314,-0.8315,-0.8307,-0.8341,-0.8341,-0.8374,-0.8331,-0.8332,-0.8333,0,-0.7987,-0.8013,-0.8058,-0.8089,-0.8101,-0.8123,-0.8154,-0.8178,-0.8206,-0.8217,-0.8239,-0.8249,-0.8281,-0.8272,-0.8317,-0.83,-0.8317,-0.833,-0.8332,-0.8336,-0.8326,-0.8348,-0.8384,-0.839,-0.834,-0.834,-0.8339,0,-0.7999,-0.8046,-0.8079,-0.8093,-0.813,-0.8146,-0.8162,-0.819,-0.8208,-0.8236,-0.8249,-0.828,-0.8298,-0.8322,-0.8341,-0.8333,-0.8385,-0.8377,-0.8396,-0.8396,-0.8407,-0.8406,-0.8448,-0.8416,-0.8416,-0.8416,-0.8416,0,-0.8031,-0.8058,-0.8085,-0.8106,-0.8138,-0.8155,-0.8187,-0.8204,-0.8228,-0.8254,-0.8265,-0.8288,-0.8311,-0.8338,-0.8354,-0.8389,-0.8397,-0.8407,-0.8411,-0.8407,-0.8406,-0.8419,-0.8417,-0.8417,-0.8417,-0.8417,-0.8417,0,-0.805,-0.8069,-0.8107,-0.8139,-0.8148,-0.817,-0.8198,-0.8219,-0.8236,-0.8268,-0.8276,-0.8303,-0.8336,-0.8357,-0.8398,-0.8409,-0.8448,-0.8451,-0.8438,-0.844,-0.8458,-0.8457,-0.8511,-0.8519,-0.8481,-0.8481,-0.8481,0,-0.8069,-0.8091,-0.8125,-0.8143,-0.8159,-0.8187,-0.8206,-0.8225,-0.8244,-0.8279,-0.8296,-0.833,-0.8357,-0.8409,-0.8433,-0.8466,-0.847,-0.8486,-0.8475,-0.847,-0.8472,-0.847,-0.8473,-0.8489,-0.8489,-0.8489,-0.8489,0,-0.8102,-0.811,-0.8137,-0.8167,-0.819,-0.8215,-0.824,-0.8254,-0.8277,-0.8299,-0.8332,-0.8354,-0.8396,-0.843,-0.8465,-0.8483,-0.8491,-0.8493,-0.8499,-0.8495,-0.8488,-0.8493,-0.8445,-0.8492,-0.8491,-0.8491,-0.8491,-0.8491,-0.8123,-0.8142,-0.817,-0.82,-0.8221,-0.8244,-0.8266,-0.8285,-0.8313,-0.8349,-0.8358,-0.8393,-0.8423,-0.847,-0.8489,-0.8518,-0.8516,-0.8525,-0.8527,-0.853,-0.8531,-0.8482,-0.8525,-0.8524,-0.8524,-0.8524,-0.8524,0,-0.8156,-0.8175,-0.8202,-0.8236,-0.826,-0.8264,-0.8293,-0.8313,-0.8343,-0.8369,-0.8396,-0.8436,-0.8468,-0.8495,-0.8529,-0.8547,-0.8552,-0.8556,-0.8555,-0.856,-0.853,-0.8521,-0.8552,-0.8552,-0.8552,-0.8552,-0.8552,-0.8552,-0.8177,-0.8211,-0.8223,-0.8269,-0.8287,-0.8321,-0.8337,-0.8359,-0.8381,-0.8423,-0.845,-0.8467,-0.8494,-0.8531,-0.8562,-0.8569,-0.8581,-0.8585,-0.8593,-0.8564,-0.8562,-0.8559,-0.8551,-0.8587,-0.8587,-0.8621,-0.8621,-0.8621]}]]